{"data":{"norad_id":61610,"epoch":"2026-05-25T04:00:43.761024Z","epoch_age_seconds":60500,"freshness":"FRESH","line1":"1 61610U 24188S   26145.16717316  .00000596  00000+0  16714-2 0  9997","line2":"2 61610  87.8859  40.8409 0002033 113.0369 247.0973 13.10373155 72445","mean_motion":13.10373155,"eccentricity":0.0002033,"inclination_deg":87.8859,"raan_deg":40.8409,"arg_perigee_deg":113.0369,"mean_anomaly_deg":247.0973,"bstar":0.0016714,"rev_number":7244,"period_min":109.89236115723,"perigee_km":1220.1707938142,"apogee_km":1223.2608939805,"semimajor_km":7599.8528438973,"source":"CELESTRAK","updated_at":"2026-05-25T13:38:22.751403Z"}}